Résultats du Marathon de Toulouse Métropole

Liste de résultats 2018

Place Dossard Nom Catégorie Temps réel Photos Diplôme Détails
1901 12129 PERREAUX Christel VF1 01:04:21
1902 10786 AUTIN Pierre SH 01:04:21
1903 11643 DOMINGUEZ Jean-michel VH1 01:04:22
1904 13104 LEQUEUX Gaëlle SF 01:04:23
1905 11395 BORDENEUVE Joel VH2 01:04:23
1906 10553 POUJOL Robert VH1 01:04:23
1907 12972 MARTI Aurelie SF 01:04:24
1908 12547 GOURC-BOYER Pierrette VF2 01:04:25
1909 11824 WASSERHARDT Stephane SH 01:04:25
1910 12494 SALINGUE Stephanie SF 01:04:27
1911 11561 VIVIEN Johny EH 01:04:28
1912 10391 BELLOSSI Philippe VH2 01:04:29
1913 10752 BOUCABEILLE Bertrand VH1 01:04:29
1914 13163 ALET Karine VF1 01:04:29
1915 12994 MAINGUY Pauline JF 01:04:31
1916 13103 MOULIADE Emilie SF 01:04:32
1917 12134 SUCHY Laetitia SF 01:04:33
1918 13095 ROBIN Emilie SF 01:04:33
1919 12135 SUCHY Nathalie SF 01:04:33
1920 12142 TARD Brigitte VF2 01:04:34
1921 12329 LAVAINNE Gwenaelle VF1 01:04:39
1922 10664 SOULIE Quentin EH 01:04:41
1923 12481 SOUYRI Manon SF 01:04:42
1924 12464 LEBRUN Iris EF 01:04:42
1925 12118 SAULIERES Françoise VF3 01:04:42
1926 10642 MASSOU François VH1 01:04:42
1927 11276 ALBALADEJO Raphaël VH2 01:04:42
1928 12522 BELISE Kathy SF 01:04:43
1929 12445 MASSOU Nancy VF1 01:04:43
1930 12563 VEYRAC Adeline SF 01:04:44
1931 13123 BOUZAROU Véronique VF1 01:04:44
1932 10362 LOURDEL Yvan VH1 01:04:44
1933 11088 DUBOURG Adrien VH3 01:04:46
1934 12325 ROUX Josiane VF2 01:04:47
1935 12302 GUILLEMET Fanny EF 01:04:48
1936 12152 MARK Rachel SF 01:04:52
1937 11026 LITTLER Alan SH 01:04:52
1938 12332 DEMOURANT Celine VF1 01:04:53
1939 12989 JAECK Sarah SF 01:04:54
1940 12993 AUGER Marie-aude VF1 01:04:54
1941 11183 AMMAR Marouane SH 01:04:54
1942 13003 VILLENEUVE Emilie SF 01:04:54
1943 10330 BEVILACQUA Didier VH2 01:04:54
1944 12643 BARBE Nathalie VF2 01:04:55
1945 11075 EDJEKOUANE Idir SH 01:04:55
1946 12360 WESTH Pernille VF1 01:04:57
1947 10331 ROCACHE Olivier VH2 01:04:57
1948 12818 BIGOT Sophie VF1 01:04:57
1949 12090 GUYOT BONNAL Marie VF1 01:04:57
1950 12935 NOBLET Sylvie VF2 01:04:57
1951 12071 PREVOT Marine SF 01:04:59
1952 13029 AMAYA GARRIDO Ana SF 01:04:59
1953 12092 PIMOULT Agnes VF2 01:04:59
1954 12223 DOMINGO Luce SF 01:05:00
1955 10615 LAHAYE Raphael SH 01:05:00
1956 12319 DE FREITAS Christy VF1 01:05:00
1957 10449 LEVY Jonathan SH 01:05:00
1958 12891 MALE Margaud SF 01:05:00
1959 10370 DE FREITAS Sylvain VH1 01:05:02
1960 10743 CAUSSE Pierre VH2 01:05:02
1961 13035 BITTO Stella VF1 01:05:04
1962 12095 DUBOIS Mélanie SF 01:05:04
1963 10241 TECHER David SH 01:05:05
1964 10253 IZQUIERDO Philippe VH2 01:05:05
1965 12774 GERBAULT Fabie VF1 01:05:05
1966 12096 DELHON Perrine SF 01:05:05
1967 12716 NYAMAKOLI Daisy SF 01:05:05
1968 12800 UWIRAGIYE Marie-jeanne SF 01:05:05
1969 10267 DORIAN Dison SH 01:05:06
1970 13012 TOURREL Marine SF 01:05:06
1971 12057 BERGE Manon SF 01:05:06
1972 11257 ONODY Zoltan SH 01:05:07
1973 11358 HELLE Pierre VH2 01:05:07
1974 12019 BOURDEU Christelle SF 01:05:08
1975 12997 SACAREAU Laura SF 01:05:08
1976 11212 COTTE Daniel hubert SH 01:05:09
1977 12802 ADEM Saada said EF 01:05:10
1978 10213 KABA Youssoufa SH 01:05:10
1979 12565 ESTRABAUD Julie SF 01:05:14
1980 12395 EVRARD Bérangère VF1 01:05:15
1981 12582 ROSSIGNOL Cécile SF 01:05:15
1982 12127 FORNER Jessica CF 01:05:15
1983 12054 MALAGOUEN Khaira SF 01:05:15
1984 11794 BONNEVIE Bertrand SH 01:05:17
1985 11368 LOUBET Clement SH 01:05:18
1986 12578 GABIS Karine VF1 01:05:19
1987 10741 VANOLI Olivier VH1 01:05:20
1988 13073 MARVILLET Agathe JF 01:05:22
1989 12587 BAYROU Astrid SF 01:05:22
1990 10549 ROUX Jean-paul VH3 01:05:22
1991 12751 DEFFENSE Marie SF 01:05:24
1992 10945 RASPAUD Christophe VH2 01:05:25
1993 10899 LACROIX Alexandre VH1 01:05:26
1994 10779 RODDE Serge VH2 01:05:26
1995 12067 VIDAL Cathy VF1 01:05:26
1996 12068 DIVE Corinne VF2 01:05:27
1997 12988 MAZENQ Sophie SF 01:05:28
1998 12982 CASTERAN Corinne VF2 01:05:28
1999 11317 GIRAUD Jean-olivier VH2 01:05:28
2000 12073 ROUAULT Anita VF1 01:05:29
S'inscrire Organisé par

Nous contacter

Newsletter

Météo